Other Surface Observations
Issued by NWS

Home | Current Version | Previous Version | Text Only | Print | Product List | Glossary On
Versions: 1 2 3 4 5 6 7 8 9 10 11 12 13 14 15 16 17 18 19 20 21 22 23 24 25 26 27 28 29 30 31 32 33 34 35 36 37 38 39 40 41 42 43 44 45 46 47 48 49 50
676
SXUS52 KTAE 270618
OSOTAE
OSOTAE
North Florida/South Alabama/Southwest Georgia Weather Roundup
National Weather Service Tallahassee Florida
100 AM EST MON FEB 27 2017

Note: "fair" indicates few or no clouds below 12,000 feet with no
significant weather and/or obstructions to visibility.

!FLZ017-115-028-034-025-270700
...North Florida...

CITY           SKY/WX    TMP DP  RH WIND       PRES   REMARKS
TALLAHASSEE    CLEAR     54  32  43 E9        30.21F
APALACHICOLA   CLEAR     53  43  68 E6        30.18F
PERRY          PTCLDY    55  27  34 E8        30.25R
CROSS CITY     CLEAR     52  37  58 E5        30.24S
JACKSONVILLE   CLEAR     44  42  93 CALM      30.26F
$$

!FLZ112-006-005-002-011-270700
...Florida Panhandle...

CITY           SKY/WX    TMP DP  RH WIND       PRES   REMARKS
MARIANNA       PTCLDY    49  38  65 CALM      30.19F
BONIFAY        FAIR      47  45  93 CALM      30.19F
PANAMA CITY NW FAIR      48  44  86 NE5       30.16F
TYNDALL AFB    CLEAR     56  42  60 E6        30.18F
TYND DRONE APT FAIR      55  45  68 E7        30.17F
DE FUNIAK SPR  FAIR      50  39  66 E3        30.18F
EGLIN AFB      CLEAR     50  44  79 NE6       30.16F
DESTIN         CLEAR     58  53  84 E5        30.16F
HURLBURT       CLEAR     53  47  77 E7        30.14F
CRESTVIEW      CLEAR     43  40  89 CALM      30.18F
PENSACOLA      CLEAR     61  53  75 E7        30.14F
$$

!ALZ063-066-270700
...South Alabama...

CITY           SKY/WX    TMP DP  RH WIND       PRES   REMARKS
DOTHAN         CLEAR     53  32  44 E6        30.21F
OZARK CAIRNS   CLEAR     49  32  51 E5        30.17F
FT RUCKER HELI CLEAR     52  31  43 CALM      30.18S
RUCKER HELI 3  FAIR      52  30  43 N5        30.17F
RUCKER HELI 2  FAIR      53  31  42 E3        30.17F
FLORALA APT    CLEAR     48  35  60 CALM      30.19F
ANDALUSIA      CLEAR     49  37  63 CALM      30.17S
TROY           CLEAR     54  28  36 CALM      30.18F
EUFALA         FAIR      54  30  40 SE6       30.20R
MOBILE         CLEAR     48  44  86 CALM      30.15R
$$

!GAZ120>161-270700
...Southwest and South Central Georgia...

CITY           SKY/WX    TMP DP  RH WIND       PRES   REMARKS
THOMASVILLE    FAIR      52  34  50 SE3       30.24F
BAINBRIDGE     CLEAR     48  37  66 CALM      30.22S
MOODY AFB      PTCLDY    50  35  56 E6        30.24S
VALDOSTA       PTCLDY    49  34  56 SE5       30.25S
MOULTRIE       CLEAR     52  32  46 E3        30.24F
BLAKELY        CLEAR     46  41  81 CALM      30.22S
ALBANY         CLEAR     46  35  65 CALM      30.25S
TIFTON         FAIR      50  33  52 SE3       30.24S
FITZGERALD     FAIR      48  37  67 CALM      30.28S
CORDELE        FAIR      45  36  71 CALM      30.25F
AMERICUS       FAIR      50  27  40 SE5       30.25S
HOMERVILLE     FAIR      45  41  87 E3        30.26F
$$

!GMZ750-755-770-775-270700
...Coastal and Buoy Obs...

STATION/POSITION TIME  TEMP    WIND        PRES    VSBY  WAVE
                       AIR SEA DIR/SP/G                  HT/PER
                 (UTC) (F)     (DEG/KT/KT) (MB)    (MI)  (FT/S)
KEATON BEACH     0600   55      90/ 10/ 12 1023.2F
CEDAR KEY        0600   59      80/ 14/ 16 1023.8R
C TOWER          0600   67     110/ 18/ 20 1022.6F
APALACHICOLA BUO 0550   69 69  130/ 21/ 23 1020.8R         3/ 5
PANAMA CITY BUOY 0550   71 71              1021.2F         4/ 6
MOBILE BUOY      NOT AVBL
ORANGE BCH AL BU 0550   68 68  130/ 19/ 23 1019.8F         4/ 6
$$




USA.gov is the U.S. government's official web portal to all federal, state and local government web resources and services.